Saginaw, MI

3:28 AM EDT on August 24, 2017 (GMT -0400)
MBS International

Weather History for KMBS - November, 2013

Change the Weather History Date:

Saturday, November 23, 2013

  Actual Average Record
Temperature  
Mean Temperature 23 °F 36 °F  
Max Temperature 29 °F 42 °F 64 °F (1999)
Min Temperature 17 °F 29 °F 12 °F (2007)
Degree Days  
Heating Degree Days 42    
Month to date heating degree days 567  
Since 1 July heating degree days 1126  
Cooling Degree Days 0    
Month to date cooling degree days 0  
Year to date cooling degree days 668  
Moisture  
Dew Point 14 °F    
Average Humidity 60    
Maximum Humidity 81    
Minimum Humidity 38    
Precipitation  
Precipitation T in 0.09 in 0.85 in (2014)
Month to date precipitation 1.72 2.14  
Year to date precipitation 31.22 29.12  
Snow  
Snow 0.10 in - - ()
Month to date snowfall 0.1  
Since 1 July snowfall 0.1  
Since 1 September snowfall 0.1  
Snow Depth 0.00 in    
Sea Level Pressure  
Sea Level Pressure 30.37 in    
Wind  
Wind Speed 16 mph (WNW)    
Max Wind Speed 30 mph    
Max Gust Speed 38 mph    
Visibility 9 miles    
Events Snow    
T = Trace of Precipitation, MM = Missing Value Source: NWS Daily Summary

Daily Weather History Graph

Daily Weather History Graph

Search for Another Location

Airport or City:

Trip Planner

Search our weather history database for the weather conditions in past years. The results will help you decide how hot, cold, wet, or windy it might be!

Date:

Astronomy

Nov. 23, 2013 Rise Set
Actual Time 7:40 AM EST 5:04 PM EST
Civil Twilight 7:08 AM EST 5:36 PM EST
Nautical Twilight 6:33 AM EST 6:11 PM EST
Astronomical Twilight 5:59 AM EST 6:45 PM EST
Moon 10:36 PM EST (11/23) 11:53 AM EST (11/23)
Length of Visible Light 10h 27m
Length of Day
9h 24m
Waning Gibbous, 70% of the Moon is Illuminated
Nov 23
Waning Gibbous
Nov 25
Last Quarter
Dec 2
New
Dec 9
First Quarter
Dec 17
Full

Hourly Weather History & Observations

Time (EST) Temp. Windchill Dew Point Humidity Pressure Visibility Wind Dir Wind Speed Gust Speed Precip Events Conditions
12:53 AM 27.0 °F 18.7 °F 21.9 °F 81% 30.33 in 10.0 mi SSW 8.1 mph - N/A   Clear
1:53 AM 27.0 °F 16.7 °F 21.9 °F 81% 30.32 in 10.0 mi SW 11.5 mph - N/A   Clear
2:53 AM 26.1 °F 16.8 °F 21.9 °F 84% 30.30 in 10.0 mi SW 9.2 mph - N/A   Clear
3:53 AM 27.0 °F 18.0 °F 21.9 °F 81% 30.28 in 10.0 mi WSW 9.2 mph - N/A   Clear
4:53 AM 28.0 °F 17.0 °F 21.0 °F 75% 30.27 in 10.0 mi West 13.8 mph - N/A   Mostly Cloudy
5:53 AM 28.0 °F 16.1 °F 19.9 °F 72% 30.28 in 10.0 mi West 16.1 mph - N/A   Scattered Clouds
6:53 AM 28.0 °F 15.3 °F 21.0 °F 75% 30.29 in 4.0 mi WNW 18.4 mph 23.0 mph 0.00 in Snow Light Snow
6:56 AM 28.4 °F 18.0 °F 21.2 °F 74% 30.26 in 1.8 mi WNW 12.7 mph 23.0 mph 0.00 in Snow Light Snow
7:22 AM 26.6 °F 15.2 °F 21.2 °F 80% 30.27 in 3.0 mi NW 13.8 mph 24.2 mph 0.00 in Snow Light Snow
7:31 AM 26.6 °F 15.7 °F 21.2 °F 80% 30.27 in 9.0 mi NW 12.7 mph - 0.00 in   Overcast
7:53 AM 26.1 °F 15.6 °F 19.9 °F 78% 30.31 in 10.0 mi NW 11.5 mph - 0.00 in   Overcast
8:21 AM 26.6 °F 16.2 °F 17.6 °F 69% 30.29 in 10.0 mi NW 11.5 mph - N/A   Mostly Cloudy
8:50 AM 24.8 °F 11.9 °F 14.0 °F 64% 30.30 in 10.0 mi WNW 16.1 mph 24.2 mph N/A   Mostly Cloudy
8:53 AM 24.1 °F 10.6 °F 12.9 °F 62% 30.33 in 10.0 mi NW 17.3 mph - N/A   Scattered Clouds
9:53 AM 26.1 °F 11.6 °F 12.0 °F 55% 30.34 in 10.0 mi NW 21.9 mph 28.8 mph N/A   Clear
10:53 AM 25.0 °F 9.9 °F 12.9 °F 60% 30.36 in 10.0 mi NW 23.0 mph 32.2 mph N/A   Mostly Cloudy
11:18 AM 23.0 °F 8.7 °F 15.8 °F 74% 30.34 in 2.0 mi NW 18.4 mph 31.1 mph 0.00 in Snow Light Snow
11:22 AM 23.0 °F 9.2 °F 14.0 °F 68% 30.34 in 1.2 mi NW 17.3 mph 28.8 mph 0.00 in Snow Light Snow
11:29 AM 24.8 °F 9.3 °F 15.8 °F 69% 30.34 in 3.0 mi NW 24.2 mph 28.8 mph 0.00 in Snow Light Snow
11:53 AM 24.1 °F 8.0 °F 10.0 °F 55% 30.38 in 10.0 mi NW 25.3 mph 33.4 mph 0.00 in   Overcast
12:53 PM 24.1 °F 8.0 °F 6.1 °F 46% 30.39 in 10.0 mi NW 25.3 mph 32.2 mph N/A   Mostly Cloudy
1:53 PM 26.1 °F 12.0 °F 5.0 °F 41% 30.39 in 10.0 mi NW 20.7 mph 31.1 mph N/A   Overcast
2:53 PM 24.1 °F 9.0 °F 5.0 °F 44% 30.40 in 10.0 mi NW 21.9 mph 27.6 mph N/A   Partly Cloudy
3:53 PM 21.9 °F 6.9 °F 7.0 °F 53% 30.43 in 10.0 mi WNW 19.6 mph 26.5 mph 0.00 in   Mostly Cloudy
4:53 PM 19.9 °F 5.2 °F 10.0 °F 65% 30.45 in 10.0 mi WNW 17.3 mph 24.2 mph N/A   Partly Cloudy
5:53 PM 19.0 °F 6.8 °F 9.0 °F 65% 30.48 in 10.0 mi NW 11.5 mph - N/A   Clear
6:53 PM 19.0 °F 8.2 °F 8.1 °F 62% 30.50 in 10.0 mi NW 9.2 mph - N/A   Scattered Clouds
7:53 PM 18.0 °F 6.1 °F 8.1 °F 65% 30.53 in 10.0 mi NW 10.4 mph - N/A   Scattered Clouds
8:53 PM 17.1 °F 6.6 °F 7.0 °F 65% 30.54 in 10.0 mi NW 8.1 mph - N/A   Partly Cloudy
9:53 PM 17.1 °F 6.6 °F 8.1 °F 68% 30.53 in 10.0 mi WNW 8.1 mph - N/A   Partly Cloudy
10:53 PM 18.0 °F 6.1 °F 9.0 °F 68% 30.54 in 10.0 mi WNW 10.4 mph - N/A   Overcast
11:53 PM 17.1 °F 4.3 °F 10.0 °F 74% 30.54 in 10.0 mi WNW 11.5 mph - N/A   Scattered Clouds